Weather History for Sherman-Denison, TX

Change the Weather History Date:

Saturday, November 9, 2013

  Actual Average (KDFW) Record (KDFW)
Temperature  
Mean Temperature 62 °F 59 °F  
Max Temperature 68 °F 70 °F 88 °F (2005)
Min Temperature 55 °F 49 °F 28 °F (1991)
Degree Days  
Heating Degree Days 4 7  
Month to date heating degree days 54  
Since 1 July heating degree days 126  
Cooling Degree Days 0 1  
Month to date cooling degree days 17  
Year to date cooling degree days 2740  
Growing Degree Days 12 (Base 50)    
Moisture  
Dew Point 47 °F    
Average Humidity 63    
Maximum Humidity 71    
Minimum Humidity 51    
Precipitation  
Precipitation 0.00 in 0.10 in 2.68 in (1937)
Month to date precipitation 0.99  
Year to date precipitation 31.87  
Snow  
Snow 0.00 in 0.00 in T in (1948)
Month to date snowfall 0.0  
Since 1 July snowfall 0.0  
Since 1 September snowfall 0.0  
Snow Depth -    
Sea Level Pressure  
Sea Level Pressure 30.17 in    
Wind  
Wind Speed 9 mph (SSE)    
Max Wind Speed 15 mph    
Max Gust Speed 22 mph    
Visibility 10 miles    
Events      
T = Trace of Precipitation, MM = Missing Value Source: NWS Daily Summary

Daily Weather History Graph

Daily Weather History Graph

Search for Another Location

Airport:

Trip Planner

Search our weather history database for the weather conditions in past years. The results will help you decide how hot, cold, wet, or windy it might be!

Date:

Astronomy

Nov. 09, 2013 Rise Set
Actual Time 6:53 AM CST 5:27 PM CST
Civil Twilight 6:27 AM CST 5:53 PM CST
Nautical Twilight 5:57 AM CST 6:23 PM CST
Astronomical Twilight 5:27 AM CST 6:52 PM CST
Moon 12:33 PM CST (11/9) 11:54 PM CST (11/9)
Length of Visible Light 11h 26m
Length of Day
10h 34m
Waxing Crescent, 44% of the Moon is Illuminated
Nov 9
Waxing Crescent
Nov 9
First Quarter
Nov 17
Full
Nov 25
Last Quarter
Dec 2
New

Hourly Weather History & Observations

Time (CST) Temp. Dew Point Humidity Pressure Visibility Wind Dir Wind Speed Gust Speed Precip Events Conditions
12:15 AM 56.5 °F 43.5 °F 62% 30.14 in 10.0 mi South 4.6 mph - N/A   Overcast
12:35 AM 55.8 °F 43.7 °F 64% 30.14 in 10.0 mi South 3.5 mph - N/A   Mostly Cloudy
12:55 AM 55.4 °F 44.2 °F 66% 30.15 in 10.0 mi SSE 6.9 mph - N/A   Scattered Clouds
1:15 AM 55.6 °F 44.8 °F 67% 30.14 in 10.0 mi SSE 9.2 mph - N/A   Mostly Cloudy
1:35 AM 55.8 °F 44.6 °F 66% 30.14 in 10.0 mi SSE 9.2 mph - N/A   Overcast
1:55 AM 55.4 °F 44.8 °F 67% 30.14 in 10.0 mi SSE 6.9 mph - N/A   Overcast
2:15 AM 55.4 °F 44.8 °F 67% 30.14 in 10.0 mi SSE 8.1 mph - N/A   Overcast
2:35 AM 55.4 °F 45.0 °F 68% 30.13 in 10.0 mi SSE 8.1 mph - N/A   Overcast
2:55 AM 55.6 °F 44.6 °F 67% 30.12 in 10.0 mi SSE 10.4 mph - N/A   Overcast
3:15 AM 55.6 °F 44.8 °F 67% 30.13 in 10.0 mi SSE 9.2 mph - N/A   Overcast
3:35 AM 55.4 °F 44.8 °F 67% 30.13 in 10.0 mi SSE 9.2 mph - N/A   Overcast
3:55 AM 55.6 °F 45.0 °F 67% 30.13 in 10.0 mi SSE 8.1 mph - N/A   Overcast
4:15 AM 55.2 °F 45.0 °F 68% 30.13 in 10.0 mi SSE 8.1 mph - N/A   Overcast
4:35 AM 55.4 °F 44.8 °F 67% 30.13 in 10.0 mi SSE 9.2 mph - N/A   Overcast
4:55 AM 55.2 °F 45.3 °F 69% 30.13 in 10.0 mi South 10.4 mph - N/A   Overcast
5:15 AM 55.4 °F 45.5 °F 69% 30.13 in 10.0 mi SSE 11.5 mph - N/A   Overcast
5:35 AM 55.4 °F 45.5 °F 69% 30.14 in 10.0 mi South 11.5 mph - N/A   Overcast
5:55 AM 55.0 °F 45.7 °F 71% 30.14 in 10.0 mi SSE 12.7 mph - N/A   Overcast
6:15 AM 55.4 °F 45.5 °F 69% 30.14 in 10.0 mi SSE 12.7 mph - N/A   Overcast
6:35 AM 55.4 °F 45.3 °F 69% 30.15 in 10.0 mi SSE 11.5 mph - N/A   Overcast
6:55 AM 55.4 °F 45.1 °F 68% 30.16 in 10.0 mi South 9.2 mph - N/A   Overcast
7:15 AM 55.4 °F 45.3 °F 69% 30.16 in 10.0 mi South 11.5 mph - N/A   Overcast
7:35 AM 55.6 °F 45.0 °F 67% 30.16 in 10.0 mi South 10.4 mph - N/A   Overcast
7:55 AM 56.3 °F 44.6 °F 65% 30.17 in 10.0 mi South 12.7 mph - N/A   Overcast
8:15 AM 57.2 °F 44.6 °F 63% 30.17 in 10.0 mi South 11.5 mph 17.3 mph N/A   Overcast
8:35 AM 58.1 °F 44.2 °F 60% 30.17 in 10.0 mi South 12.7 mph - N/A   Overcast
8:55 AM 59.2 °F 44.2 °F 58% 30.18 in 10.0 mi South 13.8 mph 20.7 mph N/A   Overcast
9:15 AM 59.2 °F 43.9 °F 57% 30.19 in 10.0 mi South 12.7 mph - N/A   Overcast
9:35 AM 59.0 °F 45.0 °F 60% 30.19 in 10.0 mi South 9.2 mph - N/A   Overcast
9:55 AM 60.1 °F 45.5 °F 59% 30.19 in 10.0 mi South 11.5 mph - N/A   Overcast
10:15 AM 61.7 °F 46.0 °F 56% 30.18 in 10.0 mi South 13.8 mph - N/A   Overcast
10:35 AM 62.6 °F 47.1 °F 57% 30.18 in 10.0 mi South 13.8 mph - N/A   Overcast
10:55 AM 62.6 °F 47.7 °F 58% 30.17 in 10.0 mi South 13.8 mph - N/A   Overcast
11:15 AM 63.0 °F 48.2 °F 59% 30.17 in 10.0 mi South 15.0 mph - N/A   Overcast
11:35 AM 63.9 °F 48.6 °F 57% 30.17 in 10.0 mi South 15.0 mph - N/A   Overcast
11:55 AM 64.0 °F 48.6 °F 57% 30.17 in 10.0 mi SSE 15.0 mph - N/A   Overcast
12:15 PM 64.8 °F 48.9 °F 56% 30.16 in 10.0 mi SSE 13.8 mph - N/A   Overcast
12:35 PM 67.6 °F 49.6 °F 52% 30.14 in 10.0 mi South 15.0 mph - N/A   Overcast
12:55 PM 68.0 °F 49.5 °F 51% 30.14 in 10.0 mi South 12.7 mph 21.9 mph N/A   Scattered Clouds
1:15 PM 68.2 °F 50.4 °F 53% 30.13 in 10.0 mi SSE 15.0 mph 20.7 mph N/A   Scattered Clouds
1:35 PM 67.1 °F 49.5 °F 53% 30.13 in 10.0 mi SSE 13.8 mph - N/A   Scattered Clouds
1:55 PM 65.7 °F 49.6 °F 56% 30.13 in 10.0 mi SSE 13.8 mph - N/A   Scattered Clouds
2:15 PM 65.5 °F 50.0 °F 57% 30.13 in 10.0 mi SSE 11.5 mph - N/A   Scattered Clouds
2:35 PM 64.9 °F 49.8 °F 58% 30.14 in 10.0 mi SSE 9.2 mph - N/A   Mostly Cloudy
2:55 PM 64.8 °F 49.3 °F 57% 30.13 in 10.0 mi SE 8.1 mph - N/A   Overcast
3:15 PM 64.9 °F 49.1 °F 56% 30.14 in 10.0 mi SE 10.4 mph - N/A   Overcast
3:35 PM 65.3 °F 49.6 °F 57% 30.14 in 10.0 mi SE 11.5 mph - N/A   Mostly Cloudy
3:55 PM 65.3 °F 50.0 °F 58% 30.14 in 10.0 mi ESE 9.2 mph - N/A   Overcast
4:15 PM 65.7 °F 50.2 °F 57% 30.14 in 10.0 mi ESE 8.1 mph - N/A   Overcast
4:35 PM 65.3 °F 50.2 °F 58% 30.15 in 10.0 mi SE 10.4 mph - N/A   Overcast
4:55 PM 64.6 °F 49.8 °F 59% 30.16 in 10.0 mi ESE 10.4 mph - N/A   Overcast
5:15 PM 63.0 °F 49.8 °F 62% 30.16 in 10.0 mi ESE 5.8 mph - N/A   Overcast
5:35 PM 62.6 °F 49.5 °F 62% 30.17 in 10.0 mi ESE 6.9 mph - N/A   Overcast
5:55 PM 62.2 °F 49.1 °F 62% 30.17 in 10.0 mi ESE 9.2 mph - N/A   Overcast
6:15 PM 61.7 °F 48.6 °F 62% 30.18 in 10.0 mi ESE 10.4 mph - N/A   Overcast
6:35 PM 61.0 °F 48.6 °F 64% 30.19 in 10.0 mi ESE 10.4 mph - N/A   Overcast
6:55 PM 60.6 °F 48.6 °F 64% 30.19 in 10.0 mi ESE 10.4 mph - N/A   Overcast
7:15 PM 60.3 °F 48.7 °F 66% 30.20 in 10.0 mi ESE 10.4 mph - N/A   Overcast
7:35 PM 60.3 °F 48.6 °F 65% 30.21 in 10.0 mi ESE 10.4 mph - N/A   Overcast
7:55 PM 59.5 °F 48.9 °F 68% 30.21 in 10.0 mi ESE 8.1 mph - N/A   Overcast
8:35 PM 58.6 °F 49.1 °F 71% 30.22 in 10.0 mi ESE 9.2 mph - N/A   Overcast
8:55 PM 58.5 °F 48.7 °F 70% 30.22 in 10.0 mi ESE 10.4 mph - N/A   Overcast
9:15 PM 58.3 °F 48.6 °F 70% 30.23 in 10.0 mi ESE 10.4 mph - N/A   Overcast
9:35 PM 58.1 °F 48.4 °F 70% 30.23 in 10.0 mi ESE 10.4 mph - N/A   Overcast
9:55 PM 58.1 °F 48.2 °F 70% 30.24 in 10.0 mi ESE 9.2 mph - N/A   Overcast
10:15 PM 58.1 °F 48.2 °F 70% 30.24 in 10.0 mi ESE 9.2 mph - N/A   Overcast
10:35 PM 58.1 °F 48.2 °F 70% 30.24 in 10.0 mi ESE 10.4 mph - N/A   Overcast
10:55 PM 57.6 °F 48.2 °F 71% 30.24 in 10.0 mi ESE 10.4 mph - N/A   Overcast
11:15 PM 57.6 °F 48.2 °F 71% 30.24 in 10.0 mi ESE 10.4 mph - N/A   Overcast
11:35 PM 57.2 °F 47.8 °F 71% 30.25 in 10.0 mi East 6.9 mph - N/A   Overcast
11:55 PM 57.2 °F 47.5 °F 70% 30.26 in 10.0 mi ESE 5.8 mph - N/A   Overcast